Weather History for KMXO - March, 2013

Change the Weather History Date:

Tuesday, March 5, 2013

  Actual Average Record
Temperature  
Mean Temperature 30 °F -  
Max Temperature 33 °F 34 °F 68 °F (2009)
Min Temperature 26 °F 20 °F -13 °F (2015)
Degree Days  
Heating Degree Days 36    
Moisture  
Dew Point 25 °F    
Average Humidity 81    
Maximum Humidity 86    
Minimum Humidity 74    
Precipitation  
Precipitation 0.18 in - - ()
Sea Level Pressure  
Sea Level Pressure 29.97 in    
Wind  
Wind Speed 7 mph (NNW)    
Max Wind Speed 17 mph    
Max Gust Speed 21 mph    
Visibility 6 miles    
Events Snow    
Averages and records for this station are not official NWS values.
T = Trace of Precipitation, MM = Missing Value Source: NWS Daily Summary

Daily Weather History Graph

Daily Weather History Graph

Search for Another Location

Airport or City:

Trip Planner

Search our weather history database for the weather conditions in past years. The results will help you decide how hot, cold, wet, or windy it might be!

Date:

Astronomy

Mar. 05, 2013 Rise Set
Actual Time 6:32 AM CST 5:59 PM CST
Civil Twilight 6:04 AM CST 6:27 PM CST
Nautical Twilight 5:32 AM CST 7:00 PM CST
Astronomical Twilight 5:00 AM CST 7:32 PM CST
Moon 1:50 AM CST (3/5) 11:34 AM CST (3/5)
Length of Visible Light 12h 22m
Length of Day
11h 26m
Last Quarter, 40% of the Moon is Illuminated
Mar 5
Last Quarter
Mar 11
New
Mar 19
First Quarter
Mar 27
Full
Apr 2
Last Quarter

Hourly Weather History & Observations

Time (CST) Temp. Windchill Dew Point Humidity Pressure Visibility Wind Dir Wind Speed Gust Speed Precip Events Conditions
12:15 AM 30.2 °F 26.7 °F 23.0 °F 75% 29.97 in 10.0 mi NE 3.5 mph - N/A   Overcast
12:35 AM 30.2 °F 24.3 °F 23.0 °F 75% 29.96 in 10.0 mi ENE 5.8 mph - N/A   Overcast
12:55 AM 30.2 °F 24.3 °F 23.0 °F 75% 29.95 in 10.0 mi ENE 5.8 mph - N/A   Overcast
1:15 AM 30.2 °F 25.4 °F 23.0 °F 75% 29.95 in 10.0 mi NE 4.6 mph - N/A   Overcast
1:35 AM 28.4 °F 22.2 °F 23.0 °F 80% 29.95 in 10.0 mi ENE 5.8 mph - N/A   Overcast
1:55 AM 28.4 °F 24.6 °F 24.8 °F 86% 29.94 in 10.0 mi NE 3.5 mph - N/A   Overcast
2:15 AM 28.4 °F 24.6 °F 24.8 °F 86% 29.94 in 2.5 mi NE 3.5 mph - N/A Snow Light Snow
2:35 AM 28.4 °F 22.2 °F 24.8 °F 86% 29.93 in 3.0 mi ENE 5.8 mph - N/A Snow Light Snow
2:55 AM 28.4 °F 23.3 °F 24.8 °F 86% 29.92 in 2.0 mi ENE 4.6 mph - N/A Snow Light Snow
3:15 AM 28.4 °F 23.3 °F 24.8 °F 86% 29.91 in 1.8 mi ENE 4.6 mph - N/A Snow Light Snow
3:35 AM 28.4 °F - 24.8 °F 86% 29.91 in 1.5 mi Calm Calm - N/A Snow Light Snow
3:55 AM 28.4 °F - 24.8 °F 86% 29.91 in 0.8 mi Calm Calm - N/A Snow Snow
4:15 AM 28.4 °F 24.6 °F 24.8 °F 86% 29.91 in 1.5 mi NE 3.5 mph - N/A Snow Light Snow
4:35 AM 28.4 °F - 24.8 °F 86% 29.91 in 1.0 mi Calm Calm - N/A Snow Snow
4:55 AM 28.4 °F - 24.8 °F 86% 29.92 in 1.0 mi Calm Calm - N/A Snow Snow
5:15 AM 28.4 °F - 24.8 °F 86% 29.92 in 1.0 mi Calm Calm - N/A Snow Snow
5:35 AM 28.4 °F 24.6 °F 24.8 °F 86% 29.92 in 1.0 mi NNW 3.5 mph - N/A Snow Snow
5:55 AM 28.4 °F 23.3 °F 24.8 °F 86% 29.92 in 1.5 mi NNW 4.6 mph - N/A Snow Light Snow
6:15 AM 28.4 °F 21.2 °F 24.8 °F 86% 29.92 in 1.8 mi NNW 6.9 mph - N/A Snow Light Snow
6:35 AM 28.4 °F 22.2 °F 24.8 °F 86% 29.93 in 1.8 mi NNW 5.8 mph - N/A Snow Light Snow
7:15 AM 28.4 °F 22.2 °F 24.8 °F 86% 29.93 in 1.5 mi NNW 5.8 mph - N/A Snow Light Snow
7:35 AM 28.4 °F 21.2 °F 24.8 °F 86% 29.93 in 1.0 mi NNW 6.9 mph - N/A Snow Light Snow
7:55 AM 28.4 °F 21.2 °F 24.8 °F 86% 29.93 in 0.5 mi NNW 6.9 mph - N/A Snow Snow
8:15 AM 28.4 °F 22.2 °F 24.8 °F 86% 29.92 in 0.2 mi NNW 5.8 mph - N/A Snow Snow
8:35 AM 28.4 °F 21.2 °F 24.8 °F 86% 29.91 in 0.5 mi North 6.9 mph - N/A Snow Light Snow
8:55 AM 28.4 °F 22.2 °F 24.8 °F 86% 29.91 in 0.8 mi North 5.8 mph - N/A Snow Light Snow
9:15 AM 28.4 °F 23.3 °F 24.8 °F 86% 29.91 in 0.8 mi NNW 4.6 mph - N/A Snow Light Snow
9:35 AM 28.4 °F 22.2 °F 24.8 °F 86% 29.90 in 0.8 mi North 5.8 mph - N/A Snow Light Snow
9:55 AM 30.2 °F 22.6 °F 24.8 °F 80% 29.91 in 1.0 mi NNW 8.1 mph - 0.01 in Snow Light Snow
10:15 AM 30.2 °F 22.6 °F 24.8 °F 80% 29.91 in 1.2 mi NNW 8.1 mph - N/A Snow Light Snow
10:35 AM 30.2 °F 22.6 °F 24.8 °F 80% 29.90 in 2.0 mi NW 8.1 mph - N/A Snow Light Snow
10:55 AM 30.2 °F 23.4 °F 24.8 °F 80% 29.91 in 2.0 mi NNW 6.9 mph - N/A Snow Light Snow
11:15 AM 30.2 °F 23.4 °F 24.8 °F 80% 29.91 in 3.0 mi NW 6.9 mph - N/A Snow Light Snow
11:35 AM 30.2 °F 22.6 °F 26.6 °F 86% 29.91 in 2.5 mi NW 8.1 mph - N/A Snow Light Snow
11:55 AM 30.2 °F 21.9 °F 26.6 °F 86% 29.90 in 2.5 mi NNW 9.2 mph - N/A Snow Light Snow
12:15 PM 32.0 °F 24.2 °F 26.6 °F 80% 29.90 in 4.0 mi NNW 9.2 mph - N/A Snow Light Snow
12:35 PM 32.0 °F 23.0 °F 26.6 °F 80% 29.90 in 5.0 mi NNW 11.5 mph - N/A   Haze
12:55 PM 32.0 °F 23.0 °F 26.6 °F 80% 29.90 in 5.0 mi NNW 11.5 mph - N/A   Haze
1:15 PM 33.8 °F 25.3 °F 26.6 °F 75% 29.90 in 7.0 mi NNW 11.5 mph - 0.02 in   Overcast
1:35 PM 33.8 °F 24.8 °F 26.6 °F 75% 29.90 in 5.0 mi NNW 12.7 mph - 0.05 in Snow Light Snow
1:55 PM 33.8 °F 24.3 °F 26.6 °F 75% 29.91 in 3.0 mi NNW 13.8 mph - 0.09 in Snow Light Snow
2:15 PM 33.8 °F 24.8 °F 26.6 °F 75% 29.91 in 4.0 mi North 12.7 mph - 0.03 in Snow Light Snow
2:35 PM 33.8 °F 24.3 °F 26.6 °F 75% 29.92 in 4.0 mi North 13.8 mph 18.4 mph 0.05 in Snow Light Snow
2:55 PM 32.0 °F 22.5 °F 26.6 °F 80% 29.93 in 4.0 mi NNW 12.7 mph - 0.06 in Snow Light Snow
3:15 PM 32.0 °F 22.1 °F 26.6 °F 80% 29.93 in 7.0 mi North 13.8 mph - N/A Snow Light Snow
3:35 PM 32.0 °F 21.6 °F 26.6 °F 80% 29.94 in 10.0 mi North 15.0 mph - 0.01 in Snow Light Snow
3:55 PM 32.0 °F 23.6 °F 26.6 °F 80% 29.95 in 10.0 mi NNW 10.4 mph - 0.02 in Snow Light Snow
4:15 PM 32.0 °F 22.5 °F 26.6 °F 80% 29.96 in 7.0 mi NNW 12.7 mph - N/A Snow Light Snow
4:35 PM 32.0 °F 22.1 °F 26.6 °F 80% 29.97 in 7.0 mi NNW 13.8 mph 18.4 mph N/A Snow Light Snow
4:55 PM 32.0 °F 22.1 °F 26.6 °F 80% 29.98 in 10.0 mi NNW 13.8 mph - N/A Snow Light Snow
5:15 PM 32.0 °F 22.5 °F 26.6 °F 80% 29.99 in 5.0 mi North 12.7 mph - N/A Snow Light Snow
5:35 PM 30.2 °F 18.9 °F 26.6 °F 86% 30.00 in 7.0 mi NNW 16.1 mph - N/A Snow Light Snow
5:55 PM 30.2 °F 19.8 °F 26.6 °F 86% 30.02 in 10.0 mi NNW 13.8 mph - N/A   Overcast
6:15 PM 30.2 °F 18.5 °F 24.8 °F 80% 30.03 in 10.0 mi NNW 17.3 mph - N/A   Overcast
6:35 PM 30.2 °F 18.5 °F 24.8 °F 80% 30.05 in 10.0 mi North 17.3 mph - N/A   Overcast
6:55 PM 30.2 °F 20.2 °F 24.8 °F 80% 30.06 in 10.0 mi NNW 12.7 mph - N/A   Overcast
7:15 PM 30.2 °F 19.8 °F 24.8 °F 80% 30.07 in 10.0 mi NNW 13.8 mph - N/A   Overcast
7:35 PM 30.2 °F 19.8 °F 24.8 °F 80% 30.07 in 10.0 mi NNW 13.8 mph 19.6 mph N/A   Overcast
7:55 PM 30.2 °F 19.3 °F 24.8 °F 80% 30.08 in 10.0 mi North 15.0 mph 20.7 mph N/A   Overcast
8:15 PM 30.2 °F 19.8 °F 24.8 °F 80% 30.09 in 10.0 mi NNW 13.8 mph - N/A   Overcast
8:35 PM 30.2 °F 19.3 °F 24.8 °F 80% 30.09 in 10.0 mi NNW 15.0 mph - N/A   Overcast
8:55 PM 28.4 °F 17.5 °F 23.0 °F 80% 30.11 in 10.0 mi NNW 13.8 mph 18.4 mph N/A   Overcast
9:15 PM 28.4 °F 16.6 °F 23.0 °F 80% 30.12 in 10.0 mi NNW 16.1 mph 20.7 mph N/A   Overcast
9:35 PM 28.4 °F 17.5 °F 23.0 °F 80% 30.13 in 10.0 mi NNW 13.8 mph - N/A   Overcast
9:55 PM 28.4 °F 17.5 °F 23.0 °F 80% 30.14 in 10.0 mi NNW 13.8 mph - N/A   Overcast
10:15 PM 28.4 °F 18.0 °F 21.2 °F 74% 30.14 in 10.0 mi NNW 12.7 mph - N/A   Overcast
10:35 PM 28.4 °F 18.0 °F 21.2 °F 74% 30.15 in 10.0 mi NNW 12.7 mph - N/A   Mostly Cloudy
10:55 PM 26.6 °F 16.2 °F 21.2 °F 80% 30.16 in 10.0 mi NNW 11.5 mph - N/A   Mostly Cloudy
11:15 PM 26.6 °F 15.7 °F 21.2 °F 80% 30.17 in 10.0 mi NNW 12.7 mph - N/A   Overcast
11:35 PM 28.4 °F 18.5 °F 21.2 °F 74% 30.17 in 10.0 mi NNW 11.5 mph - N/A   Overcast
11:55 PM 26.6 °F 16.2 °F 21.2 °F 80% 30.18 in 10.0 mi NNW 11.5 mph - N/A   Mostly Cloudy